GFA502 OBBI-OMDB

Flight info

Callsign GFA502
Flight time N/A
Altitude 37000
Route NARMI N112 GETOT J852 KSA M321 SITUK DCT PEKEM DCT RIGIL G783 ASPED Q308 KIPOK DCT IMPED IMPE3C
Aircraft A320/M-SDE3FGHIRWY/LB1

Departure

Time 2026-05-08 05:14
Airport Bahrain International Airport (OBBI)

Arrival

Time N/A
Airport Dubai International Airport (OMDB)
Time Latitude Longitude Altitude Speed Heading
2026-05-08 04:59 26.26891 50.62966 22 ft 0 kts 213°
2026-05-08 05:08 26.26894 50.62969 21 ft 2 kts 213°
2026-05-08 05:08 26.26908 50.62979 22 ft 2 kts 213°
2026-05-08 05:09 26.26922 50.62989 21 ft 2 kts 213°
2026-05-08 05:09 26.26937 50.62999 25 ft 2 kts 212°
2026-05-08 05:09 26.26952 50.63003 23 ft 2 kts 142°
2026-05-08 05:09 26.26956 50.63000 23 ft 0 kts 127°
2026-05-08 05:10 26.26948 50.63025 22 ft 14 kts 109°
2026-05-08 05:10 26.26918 50.63137 23 ft 15 kts 66°
2026-05-08 05:11 26.26954 50.63227 20 ft 13 kts 111°
2026-05-08 05:11 26.26909 50.63309 19 ft 11 kts 123°
2026-05-08 05:11 26.26870 50.63378 19 ft 10 kts 122°
2026-05-08 05:11 26.26834 50.63439 20 ft 9 kts 122°
2026-05-08 05:12 26.26774 50.63545 20 ft 38 kts 122°
2026-05-08 05:12 26.26611 50.63825 21 ft 44 kts 124°
2026-05-08 05:12 26.26447 50.64110 21 ft 44 kts 122°
2026-05-08 05:12 26.26282 50.64398 18 ft 43 kts 122°
2026-05-08 05:13 26.26128 50.64667 19 ft 41 kts 122°
2026-05-08 05:13 26.26017 50.64899 21 ft 27 kts 81°
2026-05-08 05:13 26.26144 50.64966 18 ft 22 kts 303°
2026-05-08 05:13 26.26236 50.64832 17 ft 22 kts 306°
2026-05-08 05:14 26.26369 50.64602 14 ft 67 kts 303°
2026-05-08 05:14 26.26767 50.63915 16 ft 140 kts 303°
2026-05-08 05:14 26.27164 50.63228 24 ft 177 kts 303°
2026-05-08 05:14 26.27850 50.62027 619 ft 185 kts 306°
2026-05-08 05:15 26.28541 50.60823 1475 ft 190 kts 308°
2026-05-08 05:15 26.29290 50.59519 1990 ft 210 kts 308°
2026-05-08 05:15 26.30125 50.58085 2264 ft 232 kts 308°
2026-05-08 05:15 26.31028 50.56496 2623 ft 251 kts 301°
2026-05-08 05:16 26.31493 50.54579 3283 ft 264 kts 278°
2026-05-08 05:16 26.31571 50.52517 3973 ft 269 kts 276°
2026-05-08 05:16 26.31626 50.50415 4643 ft 274 kts 276°
2026-05-08 05:16 26.31674 50.48280 5283 ft 278 kts 275°
2026-05-08 05:17 26.31717 50.46109 5943 ft 282 kts 274°
2026-05-08 05:17 26.31760 50.43901 6553 ft 288 kts 272°
2026-05-08 05:17 26.31802 50.41667 7218 ft 289 kts 271°
2026-05-08 05:17 26.31846 50.39416 7902 ft 291 kts 270°
2026-05-08 05:18 26.31892 50.37156 8625 ft 292 kts 270°
2026-05-08 05:18 26.31940 50.34884 9347 ft 294 kts 268°
2026-05-08 05:18 26.31987 50.32605 10040 ft 295 kts 268°
2026-05-08 05:18 26.32034 50.30262 10330 ft 313 kts 269°
2026-05-08 05:19 26.32082 50.27749 10453 ft 335 kts 269°
2026-05-08 05:19 26.32133 50.25072 10571 ft 355 kts 269°
2026-05-08 05:19 26.32188 50.22243 10702 ft 374 kts 269°
2026-05-08 05:19 26.32247 50.19313 11088 ft 382 kts 270°
2026-05-08 05:20 26.32306 50.16338 11616 ft 385 kts 269°
2026-05-08 05:20 26.32308 50.13342 12165 ft 388 kts 268°
2026-05-08 05:20 26.32255 50.10320 12711 ft 392 kts 266°
2026-05-08 05:20 26.32170 50.07270 13226 ft 396 kts 266°
2026-05-08 05:21 26.32076 50.04193 13751 ft 399 kts 267°
2026-05-08 05:21 26.31986 50.01097 14249 ft 402 kts 266°
2026-05-08 05:21 26.31909 49.98154 14759 ft 403 kts 266°
2026-05-08 05:21 26.31833 49.95029 15329 ft 404 kts 266°
2026-05-08 05:22 26.31761 49.91896 15855 ft 406 kts 266°
2026-05-08 05:22 26.31692 49.88742 16377 ft 408 kts 266°
2026-05-08 05:22 26.31626 49.85577 16918 ft 410 kts 266°
2026-05-08 05:22 26.31557 49.82396 17432 ft 411 kts 266°
2026-05-08 05:23 26.31485 49.79243 17923 ft 414 kts 266°
2026-05-08 05:23 26.31412 49.76032 18368 ft 416 kts 266°
2026-05-08 05:23 26.31339 49.72764 18803 ft 417 kts 266°
2026-05-08 05:23 26.31267 49.69532 19244 ft 418 kts 266°
2026-05-08 05:24 26.31192 49.66334 19679 ft 419 kts 266°
2026-05-08 05:24 26.31113 49.63084 20080 ft 420 kts 266°
2026-05-08 05:24 26.31032 49.59825 20487 ft 422 kts 266°
2026-05-08 05:24 26.30953 49.56551 20882 ft 423 kts 266°
2026-05-08 05:25 26.30871 49.53272 21264 ft 424 kts 266°
2026-05-08 05:25 26.30787 49.49980 21629 ft 426 kts 266°
2026-05-08 05:25 26.30702 49.46675 21975 ft 428 kts 266°
2026-05-08 05:25 26.30616 49.43356 22309 ft 429 kts 266°
2026-05-08 05:26 26.30530 49.40024 22657 ft 431 kts 266°
2026-05-08 05:26 26.30445 49.36677 22981 ft 433 kts 266°
2026-05-08 05:26 26.30360 49.33323 23306 ft 434 kts 266°
2026-05-08 05:26 26.30271 49.29952 23598 ft 436 kts 266°
2026-05-08 05:27 26.30180 49.26569 23845 ft 438 kts 266°
2026-05-08 05:27 26.30086 49.23174 24113 ft 439 kts 266°
2026-05-08 05:27 26.29992 49.19775 24379 ft 439 kts 266°
2026-05-08 05:27 26.29896 49.16372 24647 ft 440 kts 266°
2026-05-08 05:28 26.29799 49.12959 24921 ft 440 kts 265°
2026-05-08 05:28 26.29699 49.09551 25180 ft 440 kts 265°
2026-05-08 05:28 26.29534 49.06142 25431 ft 440 kts 263°
2026-05-08 05:28 26.29293 49.02739 25666 ft 441 kts 262°
2026-05-08 05:29 26.29005 48.99336 25884 ft 441 kts 261°
2026-05-08 05:29 26.28700 48.95931 26098 ft 442 kts 261°
2026-05-08 05:29 26.28398 48.92526 26306 ft 443 kts 262°
2026-05-08 05:29 26.28110 48.89108 26518 ft 443 kts 262°
2026-05-08 05:30 26.27837 48.85698 26802 ft 441 kts 262°
2026-05-08 05:30 26.27577 48.82298 27104 ft 439 kts 262°
2026-05-08 05:30 26.27327 48.78912 27401 ft 438 kts 262°
2026-05-08 05:30 26.27076 48.75540 27702 ft 436 kts 262°
2026-05-08 05:31 26.26819 48.72186 28008 ft 434 kts 261°
2026-05-08 05:31 26.26557 48.68842 28310 ft 432 kts 261°
2026-05-08 05:31 26.26291 48.65509 28614 ft 431 kts 261°
2026-05-08 05:31 26.26027 48.62194 28926 ft 429 kts 261°
2026-05-08 05:32 26.25765 48.58886 29234 ft 428 kts 261°
2026-05-08 05:32 26.25503 48.55591 29535 ft 426 kts 261°
2026-05-08 05:32 26.25188 48.52320 29853 ft 422 kts 256°
2026-05-08 05:32 26.24478 48.49173 30123 ft 417 kts 248°
2026-05-08 05:33 26.23357 48.46216 30384 ft 413 kts 243°
2026-05-08 05:33 26.22146 48.43320 30641 ft 412 kts 243°
2026-05-08 05:33 26.20937 48.40431 30901 ft 410 kts 243°
2026-05-08 05:33 26.19734 48.37557 31162 ft 409 kts 243°
2026-05-08 05:34 26.18534 48.34691 31417 ft 408 kts 242°
2026-05-08 05:34 26.17356 48.31875 31672 ft 406 kts 242°
2026-05-08 05:34 26.16163 48.29027 31933 ft 405 kts 242°
2026-05-08 05:34 26.14976 48.26190 32194 ft 404 kts 242°
2026-05-08 05:35 26.13795 48.23362 32455 ft 402 kts 242°
2026-05-08 05:35 26.12617 48.20546 32720 ft 401 kts 242°
2026-05-08 05:35 26.11365 48.17783 32978 ft 398 kts 236°
2026-05-08 05:35 26.09758 48.15303 33230 ft 395 kts 229°
2026-05-08 05:36 26.08002 48.12957 33488 ft 393 kts 229°
2026-05-08 05:36 26.06263 48.10618 33749 ft 392 kts 230°
2026-05-08 05:36 26.04531 48.08281 34002 ft 391 kts 230°
2026-05-08 05:36 26.02806 48.05951 34214 ft 390 kts 229°
2026-05-08 05:37 26.01085 48.03629 34433 ft 389 kts 229°
2026-05-08 05:37 25.99366 48.01313 34633 ft 388 kts 229°
2026-05-08 05:37 25.97651 47.99003 34849 ft 387 kts 229°
2026-05-08 05:37 25.95939 47.96697 35059 ft 386 kts 229°
2026-05-08 05:38 25.94232 47.94403 35246 ft 385 kts 229°
2026-05-08 05:38 25.92527 47.92115 35426 ft 384 kts 229°
2026-05-08 05:38 25.90824 47.89833 35597 ft 384 kts 229°
2026-05-08 05:38 25.89122 47.87554 35764 ft 383 kts 229°
2026-05-08 05:39 25.87422 47.85274 35930 ft 383 kts 229°
2026-05-08 05:39 25.85727 47.83001 36093 ft 382 kts 229°
2026-05-08 05:39 25.84034 47.80732 36246 ft 381 kts 229°
2026-05-08 05:39 25.82343 47.78464 36408 ft 381 kts 229°
2026-05-08 05:40 25.80658 47.76203 36522 ft 381 kts 229°
2026-05-08 05:40 25.78970 47.73937 36651 ft 381 kts 229°
2026-05-08 05:40 25.77282 47.71676 36776 ft 381 kts 229°
2026-05-08 05:40 25.75591 47.69419 36934 ft 380 kts 229°
2026-05-08 05:41 25.73902 47.67165 36991 ft 381 kts 229°
2026-05-08 05:41 25.70496 47.62621 37008 ft 384 kts 229°
2026-05-08 05:42 25.67083 47.58059 37010 ft 384 kts 229°
2026-05-08 05:42 25.63671 47.53506 37012 ft 384 kts 229°
2026-05-08 05:43 25.60264 47.48954 37020 ft 384 kts 229°
2026-05-08 05:43 25.56870 47.44440 37023 ft 384 kts 228°
2026-05-08 05:44 25.53428 47.39866 37026 ft 384 kts 229°
2026-05-08 05:44 25.50009 47.35325 37032 ft 384 kts 228°
2026-05-08 05:45 25.46609 47.30821 37033 ft 384 kts 228°
2026-05-08 05:45 25.43184 47.26286 37039 ft 384 kts 228°
2026-05-08 05:46 25.39747 47.21751 37050 ft 384 kts 228°
2026-05-08 05:46 25.36312 47.17218 37035 ft 385 kts 228°
2026-05-08 05:47 25.32880 47.12675 37044 ft 385 kts 228°
2026-05-08 05:47 25.29436 47.08129 37047 ft 386 kts 228°
2026-05-08 05:48 25.25989 47.03587 37056 ft 386 kts 228°
2026-05-08 05:48 25.22539 46.99043 37058 ft 386 kts 228°
2026-05-08 05:49 25.19083 46.94494 37069 ft 386 kts 228°
2026-05-08 05:49 25.15632 46.89955 37068 ft 386 kts 228°
2026-05-08 05:50 25.12179 46.85425 37074 ft 386 kts 228°
2026-05-08 05:50 25.08739 46.80902 37075 ft 385 kts 228°
2026-05-08 05:51 25.05291 46.76380 37074 ft 385 kts 228°
2026-05-08 05:51 25.01789 46.71929 37072 ft 383 kts 221°
2026-05-08 05:51 24.99620 46.70236 37073 ft 383 kts 207°
2026-05-08 05:52 24.97098 46.69267 37043 ft 388 kts 194°
2026-05-08 05:52 24.94377 46.69120 37044 ft 398 kts 179°
2026-05-08 05:52 24.91663 46.69868 37041 ft 411 kts 165°
2026-05-08 05:53 24.86374 46.72360 37036 ft 414 kts 165°
2026-05-08 05:53 24.81068 46.74867 37037 ft 416 kts 165°
2026-05-08 05:54 24.75743 46.77371 37021 ft 417 kts 165°
2026-05-08 05:54 24.70404 46.79869 37028 ft 417 kts 165°
2026-05-08 05:55 24.65053 46.82374 37030 ft 418 kts 165°
2026-05-08 05:55 24.59697 46.84888 37036 ft 419 kts 165°
2026-05-08 05:56 24.54333 46.87394 37033 ft 419 kts 164°
2026-05-08 05:56 24.48968 46.89903 37039 ft 420 kts 164°
2026-05-08 05:57 24.43593 46.92417 37044 ft 420 kts 164°
2026-05-08 05:57 24.38218 46.94923 37049 ft 420 kts 164°
2026-05-08 05:58 24.32833 46.97432 37035 ft 421 kts 164°
2026-05-08 05:58 24.27445 46.99941 37038 ft 421 kts 164°
2026-05-08 05:59 24.22044 47.02452 37046 ft 422 kts 164°
2026-05-08 05:59 24.16641 47.04962 37029 ft 422 kts 163°
2026-05-08 06:00 24.12145 47.07060 37030 ft 424 kts 161°
2026-05-08 06:00 24.07008 47.10390 37035 ft 431 kts 155°
2026-05-08 06:01 24.01923 47.13883 37041 ft 432 kts 155°
2026-05-08 06:01 23.96835 47.17372 37040 ft 432 kts 155°
2026-05-08 06:02 23.91741 47.20863 37038 ft 432 kts 155°
2026-05-08 06:02 23.86636 47.24350 37036 ft 432 kts 155°
2026-05-08 06:03 23.81536 47.27826 37037 ft 432 kts 155°
2026-05-08 06:03 23.76430 47.31311 37017 ft 433 kts 155°
2026-05-08 06:04 23.71357 47.34774 37023 ft 433 kts 155°
2026-05-08 06:04 23.66247 47.38259 37027 ft 433 kts 155°
2026-05-08 06:05 23.61132 47.41742 37022 ft 433 kts 155°
2026-05-08 06:05 23.56015 47.45222 37010 ft 434 kts 155°
2026-05-08 06:06 23.50895 47.48702 37013 ft 434 kts 155°
2026-05-08 06:06 23.45769 47.52180 37012 ft 434 kts 155°
2026-05-08 06:07 23.40640 47.55655 37000 ft 434 kts 154°
2026-05-08 06:07 23.35511 47.59132 37007 ft 435 kts 154°
2026-05-08 06:08 23.30407 47.62585 37003 ft 435 kts 154°
2026-05-08 06:08 23.25268 47.66068 37004 ft 435 kts 154°
2026-05-08 06:09 23.20122 47.69546 36998 ft 436 kts 154°
2026-05-08 06:09 23.14974 47.73031 36987 ft 436 kts 154°
2026-05-08 06:10 23.09819 47.76512 36991 ft 436 kts 154°
2026-05-08 06:10 23.05261 47.80941 36984 ft 457 kts 128°
2026-05-08 06:10 23.03852 47.84075 36977 ft 469 kts 115°
2026-05-08 06:11 23.03055 47.87538 36950 ft 478 kts 103°
2026-05-08 06:11 23.02740 47.94816 36959 ft 484 kts 97°
2026-05-08 06:12 23.02548 48.02136 36956 ft 485 kts 97°
2026-05-08 06:12 23.02372 48.09459 36962 ft 486 kts 97°
2026-05-08 06:13 23.02208 48.16788 36967 ft 486 kts 97°
2026-05-08 06:13 23.02034 48.24120 36964 ft 486 kts 97°
2026-05-08 06:14 23.01865 48.31452 36962 ft 486 kts 97°
2026-05-08 06:14 23.01694 48.38779 36966 ft 486 kts 97°
2026-05-08 06:15 23.01514 48.46101 36963 ft 486 kts 97°
2026-05-08 06:15 23.01321 48.53431 36962 ft 486 kts 97°
2026-05-08 06:16 23.01126 48.60752 36962 ft 485 kts 97°
2026-05-08 06:16 23.00934 48.68021 36967 ft 485 kts 97°
2026-05-08 06:17 23.00643 48.78983 36966 ft 484 kts 97°
2026-05-08 06:17 23.00449 48.86283 36962 ft 484 kts 97°
2026-05-08 06:18 23.00255 48.93586 36964 ft 484 kts 97°
2026-05-08 06:18 23.00051 49.00884 36962 ft 484 kts 97°
2026-05-08 06:19 22.99833 49.08178 36962 ft 483 kts 97°
2026-05-08 06:19 22.99615 49.15466 36959 ft 483 kts 97°
2026-05-08 06:20 22.99394 49.22750 36954 ft 483 kts 97°
2026-05-08 06:20 22.99180 49.30033 36946 ft 482 kts 96°
2026-05-08 06:21 22.98959 49.37306 36952 ft 482 kts 97°
2026-05-08 06:21 22.98731 49.44568 36955 ft 481 kts 97°
2026-05-08 06:22 22.98499 49.51820 36953 ft 481 kts 97°
2026-05-08 06:22 22.98273 49.59071 36951 ft 481 kts 96°
2026-05-08 06:23 22.98042 49.66316 36946 ft 480 kts 97°
2026-05-08 06:23 22.97802 49.73510 36947 ft 480 kts 97°
2026-05-08 06:24 22.97552 49.80749 36945 ft 480 kts 97°
2026-05-08 06:24 22.97308 49.88034 36944 ft 480 kts 96°
2026-05-08 06:25 22.97074 49.95217 36942 ft 480 kts 97°
2026-05-08 06:25 22.96816 50.02451 36934 ft 480 kts 96°
2026-05-08 06:26 22.96557 50.09681 36943 ft 480 kts 96°
2026-05-08 06:26 22.96306 50.16914 36945 ft 480 kts 96°
2026-05-08 06:27 22.96048 50.24146 36947 ft 480 kts 96°
2026-05-08 06:27 22.95785 50.31378 36944 ft 480 kts 96°
2026-05-08 06:28 22.95520 50.38610 36947 ft 480 kts 96°
2026-05-08 06:28 22.95248 50.45839 36945 ft 479 kts 96°
2026-05-08 06:29 22.94971 50.53060 36941 ft 479 kts 96°
2026-05-08 06:29 22.94691 50.60288 36939 ft 479 kts 96°
2026-05-08 06:30 22.94412 50.67509 36939 ft 479 kts 96°
2026-05-08 06:30 22.94134 50.74740 36931 ft 480 kts 96°
2026-05-08 06:31 22.93848 50.81965 36938 ft 479 kts 96°
2026-05-08 06:31 22.93561 50.89186 36935 ft 479 kts 96°
2026-05-08 06:32 22.93262 50.96401 36936 ft 479 kts 96°
2026-05-08 06:32 22.92963 51.03567 36942 ft 479 kts 96°
2026-05-08 06:33 22.92666 51.10779 36933 ft 479 kts 96°
2026-05-08 06:33 22.92361 51.17988 36933 ft 479 kts 96°
2026-05-08 06:34 22.92050 51.25201 36933 ft 479 kts 96°
2026-05-08 06:34 22.91744 51.32416 36934 ft 479 kts 96°
2026-05-08 06:35 22.91437 51.39635 36934 ft 479 kts 96°
2026-05-08 06:35 22.91122 51.46856 36939 ft 479 kts 96°
2026-05-08 06:36 22.90803 51.54077 36937 ft 479 kts 96°
2026-05-08 06:36 22.90481 51.61295 36928 ft 479 kts 96°
2026-05-08 06:37 22.90154 51.68515 36932 ft 479 kts 96°
2026-05-08 06:37 22.89825 51.75727 36930 ft 479 kts 96°
2026-05-08 06:38 22.89491 51.82937 36922 ft 478 kts 96°
2026-05-08 06:38 22.89156 51.90141 36923 ft 478 kts 96°
2026-05-08 06:39 22.88815 51.97333 36923 ft 478 kts 96°
2026-05-08 06:39 22.88477 52.04528 36922 ft 477 kts 96°
2026-05-08 06:40 22.88135 52.11713 36914 ft 477 kts 96°
2026-05-08 06:40 22.87792 52.18893 36912 ft 477 kts 96°
2026-05-08 06:41 22.87445 52.26072 36919 ft 477 kts 96°
2026-05-08 06:41 22.87088 52.33193 36912 ft 476 kts 96°
2026-05-08 06:42 22.86733 52.40316 36911 ft 476 kts 96°
2026-05-08 06:42 22.86378 52.47476 36913 ft 476 kts 96°
2026-05-08 06:43 22.86020 52.54638 36905 ft 475 kts 96°
2026-05-08 06:43 22.85661 52.61724 36910 ft 475 kts 96°
2026-05-08 06:44 22.85292 52.68871 36909 ft 475 kts 96°
2026-05-08 06:44 22.84911 52.76013 36907 ft 474 kts 96°
2026-05-08 06:45 22.84533 52.83152 36899 ft 474 kts 96°
2026-05-08 06:45 22.84162 52.90283 36898 ft 474 kts 96°
2026-05-08 06:46 22.83788 52.97412 36896 ft 474 kts 96°
2026-05-08 06:46 22.83404 53.04494 36894 ft 474 kts 96°
2026-05-08 06:47 22.83018 53.11620 36887 ft 474 kts 96°
2026-05-08 06:47 22.82623 53.18752 36893 ft 474 kts 96°
2026-05-08 06:48 22.82228 53.25883 36897 ft 474 kts 96°
2026-05-08 06:48 22.81837 53.33016 36898 ft 474 kts 96°
2026-05-08 06:49 22.81444 53.40148 36897 ft 474 kts 96°
2026-05-08 06:49 22.81048 53.47234 36894 ft 474 kts 96°
2026-05-08 06:50 22.80642 53.54360 36891 ft 474 kts 96°
2026-05-08 06:50 22.80230 53.61488 36890 ft 474 kts 96°
2026-05-08 06:51 22.79815 53.68615 36888 ft 474 kts 96°
2026-05-08 06:51 22.79400 53.75742 36884 ft 474 kts 96°
2026-05-08 06:52 22.78982 53.82872 36886 ft 474 kts 96°
2026-05-08 06:52 22.78567 53.89993 36878 ft 474 kts 96°
2026-05-08 06:53 22.78163 53.97122 36881 ft 475 kts 93°
2026-05-08 06:53 22.78719 54.03049 36880 ft 479 kts 79°
2026-05-08 06:54 22.80183 54.10087 36875 ft 479 kts 79°
2026-05-08 06:54 22.81613 54.17106 36874 ft 479 kts 79°
2026-05-08 06:55 22.83029 54.24164 36873 ft 479 kts 80°
2026-05-08 06:55 22.84443 54.31229 36874 ft 480 kts 79°
2026-05-08 06:56 22.85873 54.38291 36875 ft 480 kts 79°
2026-05-08 06:56 22.87305 54.45360 36878 ft 480 kts 79°
2026-05-08 06:57 22.88726 54.52429 36876 ft 480 kts 79°
2026-05-08 06:57 22.90129 54.59447 36875 ft 480 kts 79°
2026-05-08 06:58 22.91542 54.66525 36877 ft 480 kts 79°
2026-05-08 06:58 22.92960 54.73601 36877 ft 480 kts 79°
2026-05-08 06:59 22.94376 54.80676 36873 ft 480 kts 79°
2026-05-08 06:59 22.95772 54.87749 36875 ft 480 kts 79°
2026-05-08 07:00 22.97167 54.94828 36873 ft 480 kts 79°
2026-05-08 07:00 22.98570 55.01915 36881 ft 480 kts 79°
2026-05-08 07:01 22.99974 55.09001 36890 ft 480 kts 79°
2026-05-08 07:01 23.01553 55.16038 36887 ft 482 kts 70°
2026-05-08 07:02 23.03041 55.19289 36897 ft 483 kts 57°
2026-05-08 07:02 23.05109 55.22157 36895 ft 483 kts 45°
2026-05-08 07:02 23.07668 55.24509 36890 ft 482 kts 33°
2026-05-08 07:02 23.10599 55.26247 36886 ft 481 kts 21°
2026-05-08 07:03 23.16947 55.28281 36882 ft 480 kts 14°
2026-05-08 07:03 23.23404 55.30177 36878 ft 481 kts 14°
2026-05-08 07:04 23.29874 55.32080 36878 ft 482 kts 14°
2026-05-08 07:04 23.36333 55.33988 36881 ft 482 kts 14°
2026-05-08 07:05 23.42799 55.35904 36890 ft 482 kts 14°
2026-05-08 07:05 23.49283 55.37820 36892 ft 483 kts 14°
2026-05-08 07:06 23.55769 55.39740 36889 ft 483 kts 14°
2026-05-08 07:06 23.62259 55.41658 36888 ft 483 kts 14°
2026-05-08 07:07 23.68753 55.43585 36888 ft 484 kts 14°
2026-05-08 07:07 23.75248 55.45516 36893 ft 484 kts 14°
2026-05-08 07:08 23.81746 55.47450 36900 ft 484 kts 14°
2026-05-08 07:08 23.88250 55.49379 36901 ft 484 kts 14°
2026-05-08 07:09 23.94748 55.51306 36906 ft 485 kts 14°
2026-05-08 07:09 24.01024 55.53964 36898 ft 486 kts 30°
2026-05-08 07:10 24.06361 55.58473 36906 ft 486 kts 42°
2026-05-08 07:10 24.08876 55.60957 36319 ft 489 kts 42°
2026-05-08 07:10 24.11432 55.63482 35145 ft 499 kts 42°
2026-05-08 07:11 24.13982 55.66003 34249 ft 501 kts 42°
2026-05-08 07:11 24.16578 55.68574 33161 ft 505 kts 42°